Flag for U.S.A. Weather past 2 weeks in Sevierville, Tennessee, U.S.A.

Now
59 °F

Clear.


Feels Like: 57 °F
Forecast: 54 / 73 °F
Wind: 10 mph from North

Location: McGhee Tyson Airport

Current Time: Sep 22, 2014 at 6:49:03 AM

Latest Report: Sep 22, 2014 at 5:53 AM


Visibility: 10 mi

Pressure: 30.04 "Hg

Humidity: 75%

Dew point: 51 °F

Location of SeviervilleLocation

Historic Weather in Sevierville — Graph

°F

Sevierville temperature yesterday

Maximum temperature yesterday: 81 °F (at 12:53 PM)
Minimum temperature yesterday: 63 °F (at 5:53 AM)
Average temperature yesterday: 71 °F

Past Weeks' High & Low Weather Summary

 TemperatureHumidityPressure
High89 °F (Sep 11, 3:53 PM)100% (Sep 7, 4:53 AM)30.21 "Hg (Sep 7, 4:53 AM)
Low57 °F (Sep 19, 6:53 AM)35% (Sep 20, 5:53 PM)29.88 "Hg (Sep 21, 3:53 PM)
Average72 °F77%30.03 "Hg
* Reported Sep 7 4:53 AM — Sep 22 4:53 AM, Sevierville, Weather by CustomWeather, © 2014

Note: Actual official high and low records may vary slightly from our data, if they occured in-between our weather recording intervals... More about our weather records

Advertising

Sevierville weather history for previous 24 hours

 ConditionsComfort  
Time TempWeatherWind HumidityBarometerVisibility
4:53 AM
Sep 22
60 °FClear.8 mph75%30.02 "Hg10 mi
3:53 AM60 °FClear.7 mph75%30.00 "Hg10 mi
2:53 AM61 °FClear.3 mph75%30.00 "Hg10 mi
1:53 AM63 °FPassing clouds.No wind65%29.99 "Hg10 mi
12:53 AM66 °FPassing clouds.5 mph59%29.98 "Hg10 mi
11:53 PM
Sep 21
68 °FPassing clouds.13 mph55%29.97 "Hg10 mi
10:53 PM70 °FPassing clouds.6 mph93%29.95 "Hg9 mi
9:53 PM70 °FPassing clouds.5 mph93%29.93 "Hg8 mi
8:53 PM70 °FPassing clouds.7 mph93%29.92 "Hg9 mi
7:53 PM72 °FCloudy.8 mph91%29.90 "Hg10 mi
6:53 PM73 °FBroken clouds.6 mph90%29.89 "Hg10 mi
5:53 PM72 °FMore clouds than sun.6 mph91%29.88 "Hg10 mi
4:53 PM72 °FRain. Fog.9 mph91%29.89 "Hg4 mi
3:53 PM81 °FMostly cloudy.15 mph58%29.88 "Hg10 mi
2:53 PM81 °FMostly cloudy.13 mph58%29.90 "Hg10 mi
1:53 PM80 °FMostly cloudy.16 mph58%29.93 "Hg10 mi
12:53 PM81 °FPartly sunny.15 mph56%29.95 "Hg10 mi
11:53 AM80 °FSunny.12 mph56%29.97 "Hg10 mi
10:53 AM77 °FPassing clouds.16 mph60%29.98 "Hg10 mi
9:53 AM73 °FPassing clouds.15 mph66%29.97 "Hg10 mi
8:53 AM68 °FPassing clouds.6 mph78%29.98 "Hg10 mi
7:53 AM64 °FPassing clouds.6 mph90%29.98 "Hg10 mi
6:53 AM63 °FPassing clouds.6 mph93%29.97 "Hg10 mi
Weather by CustomWeather, © 2014

See weather overviewHow to use our weather pages